This is the latest recevied weather packets stored in our database for station/object IW2LSY-11. If no packets are shown the sender has not sent any weather packets the latest 10 day(s).
| Time | Temp. | Humidity | Pressure | Rain* | Wind** | Luminosity | Snow |
|---|---|---|---|---|---|---|---|
| 1777823410 | 23.33° C | 26% | 1015.8 hPa | - | - | 520 W/m² | - |
| 1777822811 | 23.89° C | 26% | 1015.8 hPa | - | - | 520 W/m² | - |
| 1777822210 | 23.33° C | 26% | 1015.8 hPa | - | - | 520 W/m² | - |
| 1777821611 | 23.89° C | 26% | 1015.7 hPa | - | - | 521 W/m² | - |
| 1777821011 | 24.44° C | 25% | 1015.7 hPa | - | - | 521 W/m² | - |
| 1777820412 | 24.44° C | 25% | 1015.6 hPa | - | - | 523 W/m² | - |
| 1777819811 | 24.44° C | 25% | 1015.6 hPa | - | - | 522 W/m² | - |
| 1777819212 | 25° C | 25% | 1015.7 hPa | - | - | 523 W/m² | - |
| 1777818613 | 24.44° C | 24% | 1015.7 hPa | - | - | 523 W/m² | - |
| 1777818012 | 24.44° C | 24% | 1015.7 hPa | - | - | 524 W/m² | - |
| 1777817413 | 23.89° C | 24% | 1015.7 hPa | - | - | 524 W/m² | - |
| 1777816812 | 25° C | 24% | 1015.7 hPa | - | - | 525 W/m² | - |
| 1777816213 | 25° C | 22% | 1015.6 hPa | - | - | 523 W/m² | - |
| 1777815612 | 25° C | 24% | 1015.7 hPa | - | - | 522 W/m² | - |
| 1777815013 | 25.56° C | 23% | 1015.7 hPa | - | - | 526 W/m² | - |
| 1777814414 | 25° C | 24% | 1015.7 hPa | - | - | 526 W/m² | - |
| 1777813814 | 26.11° C | 23% | 1016 hPa | - | - | 529 W/m² | - |
| 1777813214 | 25.56° C | 23% | 1016.2 hPa | - | - | 531 W/m² | - |
| 1777812604 | 25° C | 26% | 1016.3 hPa | - | - | 531 W/m² | - |
| 1777812004 | 24.44° C | 26% | 1016.5 hPa | - | - | 531 W/m² | - |
| 1777811405 | 24.44° C | 26% | 1016.6 hPa | - | - | 532 W/m² | - |
| 1777810804 | 24.44° C | 27% | 1016.7 hPa | - | - | 533 W/m² | - |
| 1777810204 | 25.56° C | 26% | 1016.6 hPa | - | - | 532 W/m² | - |
| 1777809605 | 25° C | 27% | 1016.7 hPa | - | - | 529 W/m² | - |
| 1777809005 | 26.11° C | 26% | 1016.7 hPa | - | - | 530 W/m² | - |
* Rain since midnight (hover to see other rain measurements)
** Current wind speed in m/s (hover to see current wind gust speed)